Weather History for Kokomo, IN

Change the Weather History Date:

Sunday, March 17, 2013

  Actual Average (KGUS) Record (KGUS)
Temperature  
Mean Temperature 32 °F -  
Max Temperature 37 °F 45 °F 76 °F (2012)
Min Temperature 28 °F 28 °F 13 °F (2014)
Degree Days  
Heating Degree Days 32    
Moisture  
Dew Point 24 °F    
Average Humidity 74    
Maximum Humidity 86    
Minimum Humidity 60    
Precipitation  
Precipitation 0.00 in - - ()
Sea Level Pressure  
Sea Level Pressure 30.09 in    
Wind  
Wind Speed 13 mph (ENE)    
Max Wind Speed 23 mph    
Max Gust Speed 28 mph    
Visibility 10 miles    
Events      
Averages and records for this station are not official NWS values.
T = Trace of Precipitation, MM = Missing Value Source: NWS Daily Summary

Daily Weather History Graph

Daily Weather History Graph

Search for Another Location

Airport:

Trip Planner

Search our weather history database for the weather conditions in past years. The results will help you decide how hot, cold, wet, or windy it might be!

Date:

Astronomy

Mar. 17, 2013 Rise Set
Actual Time 6:52 AM CDT 6:53 PM CDT
Civil Twilight 6:24 AM CDT 7:20 PM CDT
Nautical Twilight 5:53 AM CDT 7:52 PM CDT
Astronomical Twilight 5:21 AM CDT 8:24 PM CDT
Moon 10:03 AM CDT (3/17) 12:02 AM CDT (3/17)
Length of Visible Light 12h 55m
Length of Day
12h 01m
Waxing Crescent, 31% of the Moon is Illuminated
Mar 17
Waxing Crescent
Mar 19
First Quarter
Mar 27
Full
Apr 2
Last Quarter
Apr 10
New

Hourly Weather History & Observations

Time (CDT) Temp. Windchill Dew Point Humidity Pressure Visibility Wind Dir Wind Speed Gust Speed Precip Events Conditions
12:15 AM 30.2 °F 21.3 °F 24.8 °F 80% 30.06 in 10.0 mi North 10.4 mph - N/A   Overcast
12:35 AM 30.2 °F 21.9 °F 26.6 °F 86% 30.06 in 10.0 mi North 9.2 mph - N/A   Overcast
12:55 AM 30.2 °F 20.8 °F 24.8 °F 80% 30.07 in 10.0 mi North 11.5 mph - N/A   Overcast
1:15 AM 30.2 °F 20.8 °F 24.8 °F 80% 30.08 in 10.0 mi North 11.5 mph - N/A   Overcast
1:35 AM 30.2 °F 20.2 °F 23.0 °F 75% 30.08 in 10.0 mi North 12.7 mph - N/A   Overcast
1:55 AM 30.2 °F 21.3 °F 24.8 °F 80% 30.08 in 10.0 mi North 10.4 mph - N/A   Overcast
2:15 AM 30.2 °F 21.9 °F 24.8 °F 80% 30.07 in 10.0 mi North 9.2 mph - N/A   Overcast
2:35 AM 30.2 °F 19.8 °F 24.8 °F 80% 30.07 in 10.0 mi NNE 13.8 mph - N/A   Overcast
2:55 AM 30.2 °F 17.8 °F 24.8 °F 80% 30.07 in 10.0 mi North 19.6 mph - N/A   Overcast
3:15 AM 30.2 °F 19.3 °F 23.0 °F 75% 30.08 in 10.0 mi North 15.0 mph - N/A   Overcast
3:35 AM 28.4 °F 17.5 °F 21.2 °F 74% 30.07 in 10.0 mi NNE 13.8 mph - N/A   Overcast
3:55 AM 28.4 °F 18.5 °F 21.2 °F 74% 30.07 in 10.0 mi NE 11.5 mph - N/A   Overcast
4:15 AM 28.4 °F 20.4 °F 21.2 °F 74% 30.09 in 10.0 mi NE 8.1 mph - N/A   Overcast
4:35 AM 28.4 °F 20.4 °F 23.0 °F 80% 30.08 in 10.0 mi NE 8.1 mph - N/A   Overcast
4:55 AM 28.4 °F 19.7 °F 23.0 °F 80% 30.09 in 10.0 mi NE 9.2 mph - N/A   Overcast
5:15 AM 28.4 °F 19.7 °F 23.0 °F 80% 30.10 in 10.0 mi NE 9.2 mph - N/A   Overcast
5:35 AM 28.4 °F 20.4 °F 23.0 °F 80% 30.10 in 10.0 mi ENE 8.1 mph - N/A   Overcast
5:55 AM 28.4 °F 20.4 °F 21.2 °F 74% 30.13 in 10.0 mi ENE 8.1 mph - N/A   Overcast
6:15 AM 28.4 °F 20.4 °F 23.0 °F 80% 30.13 in 10.0 mi ENE 8.1 mph - N/A   Overcast
6:35 AM 28.4 °F 21.2 °F 23.0 °F 80% 30.15 in 10.0 mi East 6.9 mph - N/A   Overcast
6:55 AM 28.4 °F 19.7 °F 24.8 °F 86% 30.15 in 10.0 mi East 9.2 mph - N/A   Overcast
7:15 AM 28.4 °F 21.2 °F 23.0 °F 80% 30.15 in 10.0 mi East 6.9 mph - N/A   Overcast
7:35 AM 30.2 °F 23.4 °F 23.0 °F 75% 30.17 in 10.0 mi East 6.9 mph - N/A   Overcast
7:55 AM 30.2 °F 21.3 °F 24.8 °F 80% 30.16 in 10.0 mi East 10.4 mph - N/A   Overcast
8:15 AM 30.2 °F 21.3 °F 23.0 °F 75% 30.16 in 10.0 mi East 10.4 mph - N/A   Overcast
8:35 AM 30.2 °F 20.2 °F 23.0 °F 75% 30.16 in 10.0 mi East 12.7 mph - N/A   Overcast
8:55 AM 30.2 °F 20.2 °F 24.8 °F 80% 30.16 in 10.0 mi East 12.7 mph - N/A   Overcast
9:15 AM 30.2 °F 19.3 °F 24.8 °F 80% 30.16 in 10.0 mi East 15.0 mph - N/A   Overcast
9:35 AM 30.2 °F 19.8 °F 23.0 °F 75% 30.16 in 10.0 mi East 13.8 mph - N/A   Overcast
9:55 AM 30.2 °F 19.3 °F 23.0 °F 75% 30.16 in 10.0 mi East 15.0 mph - N/A   Overcast
10:15 AM 30.2 °F 19.3 °F 23.0 °F 75% 30.16 in 10.0 mi East 15.0 mph - N/A   Overcast
10:35 AM 32.0 °F 22.1 °F 21.2 °F 64% 30.16 in 10.0 mi East 13.8 mph - N/A   Overcast
10:55 AM 32.0 °F 20.8 °F 21.2 °F 64% 30.15 in 10.0 mi East 17.3 mph - N/A   Overcast
11:15 AM 32.0 °F 21.2 °F 21.2 °F 64% 30.16 in 10.0 mi East 16.1 mph - N/A   Overcast
11:35 AM 33.8 °F 23.2 °F 23.0 °F 65% 30.16 in 10.0 mi East 17.3 mph 21.9 mph N/A   Overcast
11:55 AM 33.8 °F 23.2 °F 24.8 °F 70% 30.16 in 10.0 mi East 17.3 mph - N/A   Mostly Cloudy
12:15 PM 33.8 °F 22.5 °F 24.8 °F 70% 30.16 in 10.0 mi East 19.6 mph 23.0 mph N/A   Mostly Cloudy
12:35 PM 33.8 °F 24.8 °F 24.8 °F 70% 30.16 in 10.0 mi East 12.7 mph - N/A   Overcast
12:55 PM 35.6 °F 26.2 °F 24.8 °F 65% 30.15 in 10.0 mi East 15.0 mph 21.9 mph N/A   Mostly Cloudy
1:15 PM 35.6 °F 25.9 °F 24.8 °F 65% 30.15 in 10.0 mi East 16.1 mph - N/A   Overcast
1:35 PM 35.6 °F 26.2 °F 24.8 °F 65% 30.14 in 10.0 mi East 15.0 mph - N/A   Overcast
1:55 PM 35.6 °F 26.2 °F 24.8 °F 65% 30.13 in 10.0 mi East 15.0 mph 24.2 mph N/A   Overcast
2:15 PM 35.6 °F 27.1 °F 24.8 °F 65% 30.13 in 10.0 mi East 12.7 mph 18.4 mph N/A   Mostly Cloudy
2:35 PM 35.6 °F 25.5 °F 24.8 °F 65% 30.12 in 10.0 mi East 17.3 mph - N/A   Mostly Cloudy
2:55 PM 37.4 °F 28.9 °F 26.6 °F 65% 30.11 in 10.0 mi ESE 13.8 mph 21.9 mph N/A   Mostly Cloudy
3:15 PM 37.4 °F 28.5 °F 26.6 °F 65% 30.11 in 10.0 mi East 15.0 mph 18.4 mph N/A   Mostly Cloudy
3:35 PM 35.6 °F 26.2 °F 24.8 °F 65% 30.09 in 10.0 mi East 15.0 mph - N/A   Mostly Cloudy
3:55 PM 37.4 °F 28.5 °F 24.8 °F 60% 30.08 in 10.0 mi East 15.0 mph - N/A   Scattered Clouds
4:15 PM 37.4 °F 27.5 °F 26.6 °F 65% 30.07 in 10.0 mi East 18.4 mph 24.2 mph N/A   Scattered Clouds
4:35 PM 37.4 °F 28.2 °F 26.6 °F 65% 30.06 in 10.0 mi East 16.1 mph 21.9 mph N/A   Mostly Cloudy
4:55 PM 37.4 °F 27.8 °F 24.8 °F 60% 30.05 in 10.0 mi East 17.3 mph 24.2 mph N/A   Mostly Cloudy
5:15 PM 35.6 °F 25.2 °F 24.8 °F 65% 30.05 in 10.0 mi East 18.4 mph 24.2 mph N/A   Scattered Clouds
5:35 PM 35.6 °F 26.6 °F 24.8 °F 65% 30.06 in 10.0 mi East 13.8 mph - N/A   Clear
5:55 PM 35.6 °F 25.2 °F 24.8 °F 65% 30.07 in 10.0 mi East 18.4 mph - N/A   Clear
6:15 PM 33.8 °F 24.3 °F 24.8 °F 70% 30.07 in 10.0 mi East 13.8 mph 19.6 mph N/A   Clear
6:35 PM 33.8 °F 23.5 °F 26.6 °F 75% 30.07 in 10.0 mi East 16.1 mph - N/A   Clear
6:55 PM 33.8 °F 23.2 °F 24.8 °F 70% 30.07 in 10.0 mi East 17.3 mph 23.0 mph N/A   Scattered Clouds
7:15 PM 33.8 °F 23.2 °F 26.6 °F 75% 30.07 in 10.0 mi East 17.3 mph 20.7 mph N/A   Mostly Cloudy
7:35 PM 33.8 °F 23.5 °F 26.6 °F 75% 30.07 in 10.0 mi East 16.1 mph 23.0 mph N/A   Overcast
7:55 PM 33.8 °F 23.5 °F 26.6 °F 75% 30.07 in 10.0 mi East 16.1 mph - N/A   Overcast
8:15 PM 32.0 °F 21.2 °F 26.6 °F 80% 30.06 in 10.0 mi East 16.1 mph 23.0 mph N/A   Mostly Cloudy
8:35 PM 32.0 °F 20.8 °F 26.6 °F 80% 30.05 in 10.0 mi East 17.3 mph - N/A   Mostly Cloudy
8:55 PM 30.2 °F 17.8 °F 24.8 °F 80% 30.04 in 10.0 mi East 19.6 mph 26.5 mph N/A   Scattered Clouds
9:15 PM 30.2 °F 17.4 °F 24.8 °F 80% 30.03 in 10.0 mi East 20.7 mph - N/A   Partly Cloudy
9:35 PM 30.2 °F 17.8 °F 24.8 °F 80% 30.03 in 10.0 mi East 19.6 mph 25.3 mph N/A   Mostly Cloudy
9:55 PM 30.2 °F 17.4 °F 24.8 °F 80% 30.03 in 10.0 mi East 20.7 mph - N/A   Scattered Clouds
10:15 PM 30.2 °F 16.8 °F 24.8 °F 80% 30.02 in 10.0 mi East 23.0 mph - N/A   Clear
10:35 PM 30.2 °F 18.1 °F 24.8 °F 80% 30.02 in 10.0 mi East 18.4 mph 24.2 mph N/A   Partly Cloudy
10:55 PM 30.2 °F 17.8 °F 24.8 °F 80% 30.00 in 10.0 mi East 19.6 mph 26.5 mph N/A   Mostly Cloudy
11:15 PM 30.2 °F 17.1 °F 24.8 °F 80% 30.00 in 10.0 mi East 21.9 mph 27.6 mph N/A   Overcast
11:35 PM 30.2 °F 17.4 °F 24.8 °F 80% 29.98 in 10.0 mi East 20.7 mph - N/A   Overcast
11:55 PM 30.2 °F 17.4 °F 24.8 °F 80% 29.97 in 10.0 mi East 20.7 mph 27.6 mph N/A   Overcast